Location: Newark
(7.0858°N, 171.3717°E)
Time: 03:57:48
(UTC+00:00)

N. Korean satellite - Pass Details

Date: 04 October 2021
Orbit: 450 x 495 km, 97.3° (Epoch: 15 October)

Event Time Altitude Azimuth Distance (km) Brightness Sun altitude
Rises 16:43:46 0° 40° (NE) 2,564 10.8 -25.2°
Reaches altitude 10° 16:46:36 10° 65° (ENE) 1,687 10.1 -24.5°
Maximum altitude 16:48:38 14° 100° (E) 1,431 9.9 -24.0°
Drops below altitude 10° 16:50:41 10° 134° (SE) 1,689 9.9 -23.5°
Sets 16:53:31 0° 159° (SSE) 2,570 10.5 -22.8°
